Home > Time Zones > World Clock > Weather > Japan > Osaka > Past weeks

Flag for Japan Weather past 2 weeks in Osaka, Japan

Now
75 °F

Passing clouds.


Feels Like: 77 °F
Forecast: 61 / 81 °F
Wind: 9 mph from North

Location: Osaka International Airport

Current Time: Sep 16, 2014 at 10:55:28 PM

Latest Report: Sep 16, 2014 at 8:00 PM


Visibility: N/A

Pressure: 29.92 "Hg

Humidity: 61%

Dew point: 61 °F

Location of OsakaLocation

Historic Weather in Osaka — Graph

°F

Osaka temperature yesterday

Maximum temperature yesterday: 82 °F (at 12:00 PM)
Minimum temperature yesterday: 64 °F (at 5:00 AM)
Average temperature yesterday: 76 °F

Past Weeks' High & Low Weather Summary

 TemperatureHumidityPressure
High88 °F (Sep 2, 1:00 PM)100% (Sep 11, 5:00 AM)29.95 "Hg (Sep 11, 5:00 AM)
Low63 °F (Sep 12, 5:00 AM)31% (Sep 10, 2:00 PM)29.59 "Hg (Sep 8, 2:00 PM)
Average78 °F64%29.83 "Hg
* Reported Sep 1 8:00 PM — Sep 16 8:00 PM, Osaka, Weather by CustomWeather, © 2014

Note: Actual official high and low records may vary slightly from our data, if they occured in-between our weather recording intervals... More about our weather records

Advertising

Osaka weather history for September 3, 2014

 ConditionsComfort  
Time TempWeatherWind HumidityBarometerVisibility
5:00 AM
Sep 3
75 °FPassing clouds.10 mph74%29.89 "HgN/A
6:00 AM75 °FBroken clouds.9 mph74%29.89 "HgN/A
7:00 AM77 °FBroken clouds.8 mph69%29.89 "HgN/A
8:00 AM81 °FBroken clouds.7 mph66%29.89 "HgN/A
9:00 AM81 °FBroken clouds.10 mph62%29.89 "HgN/A
10:00 AM82 °FBroken clouds.6 mph62%29.89 "HgN/A
11:00 AM84 °FPartly sunny.6 mph58%29.89 "HgN/A
12:00 PM82 °FPartly sunny.9 mph62%29.86 "HgN/A
1:00 PM82 °FPartly sunny.10 mph62%29.83 "HgN/A
2:00 PM82 °FBroken clouds.12 mph62%29.83 "HgN/A
3:00 PM82 °FLight rain. Partly sunny.13 mph66%29.80 "HgN/A
4:00 PM81 °FBroken clouds.13 mph70%29.83 "HgN/A
5:00 PM81 °FBroken clouds.13 mph70%29.80 "HgN/A
6:00 PM81 °FBroken clouds.10 mph70%29.83 "HgN/A
7:00 PM79 °FPartly cloudy.12 mph74%29.83 "HgN/A
8:00 PM79 °FPartly cloudy.12 mph74%29.86 "HgN/A
Weather by CustomWeather, © 2014

See weather overviewHow to use our weather pages